[[{"header":{"parameterUnit":"m.s-1","parameterCategory":1,"la1":30.2991,"la2":30.254,"lo1":-89.0895,"lo2":-89.0444,"dy":0.0017,"dx":0.0017,"nx":28,"ny":28,"refTime":"2023-10-22T03:00:00:Z","depth":0,"parameterNumber":2,"parameterNumberName":"U-component_of_WINDS"},"data":[0,0,0,0,0,0,0,0,0,0,0,0,0,0,0,0,0,0,0,0,0,0,0,0,0,0,0,0,0,0,0,0,0,0,0,0,0,0,0,0,0,0,0,0,0,0,0,0,0,0,0,0,0,0,0,0,0,0,0.2562,0.2563,0,0.2669,0.267,0.2671,0.2713,0.2713,0.2712,0.2712,0.2823,0.2826,0.2829,0,0,0,0,0,0,0,0,0,0,0,0,0,0.2395,0.2397,0.2562,0.2563,0.2564,0.2668,0.267,0.2671,0.2713,0.2713,0.2712,0.2712,0.2822,0.2826,0.2829,0,0,0,0,0,0,0,0,0,0,0,0,0,0.2481,0.2398,0.2561,0.2598,0.2602,0.2668,0.267,0.2672,0.2713,0.2713,0.2712,0.2712,0.2821,0.2825,0.283,0.2869,0,0,0.2845,0.2847,0,0,0,0,0,0,0,0,0.2476,0.2487,0.2591,0.2595,0.26,0.2677,0.2652,0.2738,0.2713,0.2671,0.2712,0.2712,0.2775,0.2783,0.2804,0.2874,0.2879,0.2845,0.2848,0.285,0.2852,0,0,0,0,0,0,0,0.247,0.2483,0.2604,0.2592,0.2598,0.2609,0.2621,0.2668,0.2724,0.2675,0.2678,0.269,0.2777,0.28,0.2807,0.288,0.2845,0.2849,0.2852,0.2854,0.2988,0.2988,0,0,0,0,0,0,0.2458,0.2477,0.2601,0.2607,0.2536,0.2612,0.2625,0.2653,0.2724,0.2734,0.269,0.2691,0.2792,0.2802,0.2811,0.2862,0.285,0.2855,0.2857,0.2987,0.2988,0.2988,0,0,0,0,0,0,0.2454,0.2468,0.2596,0.2543,0.256,0.2616,0.2646,0.2655,0.2678,0.2735,0.2746,0.2703,0.2792,0.2805,0.2854,0.2866,0.2857,0.2861,0.2986,0.2987,0.2988,0.2962,0,0,0,0,0,0,0.2449,0.2467,0.2482,0.2543,0.2563,0.2637,0.2647,0.2658,0.2686,0.2688,0.275,0.276,0.2792,0.2847,0.2859,0.2873,0.2865,0.2985,0.2987,0.2988,0.2962,0.2962,0.2962,0,0,0,0,0,0.2443,0.247,0.2482,0.2497,0.2583,0.2637,0.2649,0.2685,0.2686,0.2702,0.2739,0.2758,0.2863,0.2851,0.2866,0.2881,0.2985,0.2986,0.2988,0.2962,0.2962,0.2962,0,0,0,0,0,0,0.2409,0.2479,0.2493,0.2541,0.2583,0.2644,0.2665,0.2684,0.2727,0.2727,0.2771,0.2785,0.2831,0.2861,0.2847,0.2922,0.2925,0.2929,0.2901,0.2901,0.2901,0.2893,0.2869,0,0,0,0,0,0.2406,0.2445,0.2504,0.2541,0.2561,0.2609,0.2634,0.2659,0.2704,0.2722,0.2763,0.2807,0.285,0.2877,0.292,0.2967,0.2981,0.2984,0.2984,0.2984,0.2987,0.3015,0.3017,0.2993,0.2993,0.2993,0,0,0.2403,0.2446,0.2467,0.2535,0.257,0.2609,0.2624,0.2664,0.2694,0.2729,0.2778,0.281,0.2861,0.291,0.2933,0.2936,0.2997,0.2986,0.2985,0.2989,0.3017,0.3019,0.3021,0.2994,0.2994,0.2994,0,0,0.2416,0.2452,0.2487,0.2522,0.2575,0.2607,0.2616,0.2675,0.2697,0.2747,0.2774,0.281,0.2883,0.2919,0.2947,0.2974,0.2993,0.2987,0.2986,0.3013,0.3015,0.3017,0.3027,0.303,0.299,0.299,0.299,0,0.2404,0.2464,0.2502,0.2541,0.2571,0.2604,0.264,0.2672,0.2737,0.2756,0.2759,0.2851,0.2888,0.2946,0.2953,0.2974,0.2985,0.298,0.3011,0.3014,0.3016,0.3026,0.303,0.2989,0.2989,0.2989,0.2989,0,0.2447,0.2488,0.251,0.2571,0.2603,0.264,0.2685,0.2712,0.2734,0.2766,0.2817,0.2863,0.2916,0.2932,0.2953,0.2993,0.2993,0.3003,0.3006,0.3016,0.3027,0.3031,0.2987,0.2988,0.2988,0.2988,0,0,0.2441,0.2524,0.2531,0.256,0.2621,0.2654,0.2693,0.2745,0.2768,0.2811,0.2846,0.2907,0.2916,0.2948,0.2974,0.2997,0.3017,0.3005,0.3007,0.3006,0.3063,0.3056,0.3059,0.303,0.303,0.3031,0.3059,0,0.2463,0.2534,0.257,0.2625,0.2664,0.2697,0.2731,0.2772,0.2804,0.2841,0.2876,0.2919,0.2928,0.2947,0.2971,0.3009,0.3029,0.3008,0.3062,0.3064,0.3049,0.3065,0.3057,0.3081,0.3063,0.3064,0.3065,0,0.2497,0.254,0.26,0.2658,0.2675,0.2705,0.2756,0.2791,0.2839,0.2861,0.2896,0.2922,0.2965,0.2965,0.3026,0.301,0.3035,0.3057,0.3059,0.3066,0.3065,0.3072,0.309,0.3093,0.3071,0.3071,0.307,0,0.2487,0.256,0.2606,0.2629,0.2697,0.2718,0.2747,0.2795,0.2824,0.2868,0.2888,0.2936,0.2963,0.3,0.3039,0.3036,0.3096,0.31,0.3115,0.3114,0.3126,0.3125,0.3148,0.3142,0.3142,0.3142,0.3142,0,0.2507,0.2542,0.2602,0.263,0.2671,0.2712,0.2751,0.2783,0.2826,0.2861,0.2892,0.2924,0.2973,0.3012,0.3043,0.3088,0.31,0.3119,0.3127,0.3116,0.3114,0.3133,0.3132,0.3143,0.3142,0.3142,0.3142,0,0.2503,0.2544,0.2596,0.2656,0.2673,0.27,0.2752,0.2781,0.2813,0.2857,0.287,0.2922,0.2969,0.3011,0.3074,0.3095,0.3141,0.3151,0.3125,0.3129,0.3142,0.3141,0.3179,0.3186,0.3174,0.3174,0.3174,0,0.2513,0.2541,0.2605,0.263,0.2659,0.27,0.273,0.2772,0.2802,0.2859,0.2881,0.293,0.2972,0.3046,0.309,0.3138,0.3149,0.3159,0.3157,0.3146,0.315,0.3148,0.3151,0.3159,0.3159,0.3159,0.3159,0,0.2527,0.2546,0.2587,0.2636,0.2671,0.2711,0.2753,0.2772,0.2822,0.2854,0.2902,0.2935,0.2999,0.3048,0.3101,0.3132,0.3154,0.3159,0.3165,0.3155,0.3139,0.3148,0.3124,0.3158,0.3158,0.3158,0.3158,0.3158,0.2531,0.2557,0.2606,0.2652,0.2687,0.2725,0.2755,0.2792,0.2833,0.2888,0.2911,0.296,0.3009,0.3083,0.3114,0.3154,0.3158,0.3167,0.3169,0.3171,0.3169,0.3132,0.3163,0.3164,0.3164,0.3164,0.3164,0,0.2546,0.258,0.2621,0.2678,0.2714,0.2731,0.2778,0.2807,0.285,0.2893,0.2934,0.299,0.3038,0.3085,0.3136,0.3158,0.317,0.317,0.3169,0.3176,0.3162,0.3152,0.316,0.316,0.316,0.316,0.316,0.316,0.2559,0.2605,0.263,0.2694,0.2728,0.2776,0.2802,0.2837,0.2872,0.2933,0.2973,0.3003,0.3049,0.3103,0.3148,0.3161,0.3178,0.3176,0.3191,0.3177,0.3177,0.3177,0.3167,0.3179,0.3179,0.3202,0.3202,0.3202]},{"header":{"parameterUnit":"m.s-1","parameterCategory":1,"la1":30.2991,"la2":30.254,"lo1":-89.0895,"lo2":-89.0444,"dy":0.0017,"dx":0.0017,"nx":28,"ny":28,"refTime":"2023-10-22T03:00:00:Z","depth":0,"parameterNumber":3,"parameterNumberName":"V-component_of_WINDS"},"data":[0,0,0,0,0,0,0,0,0,0,0,0,0,0,0,0,0,0,0,0,0,0,0,0,0,0,0,0,0,0,0,0,0,0,0,0,0,0,0,0,0,0,0,0,0,0,0,0,0,0,0,0,0,0,0,0,0,0,2.064,2.064,0,2.0584,2.0584,2.0583,2.0536,2.0535,2.0535,2.0534,2.0472,2.0471,2.047,0,0,0,0,0,0,0,0,0,0,0,0,0,2.0703,2.0702,2.064,2.0639,2.0639,2.0584,2.0584,2.0583,2.0536,2.0535,2.0534,2.0534,2.0473,2.0471,2.047,0,0,0,0,0,0,0,0,0,0,0,0,0,2.0664,2.0701,2.064,2.0609,2.0605,2.0585,2.0584,2.0583,2.0536,2.0535,2.0534,2.0534,2.0473,2.0471,2.047,2.0474,0,0,2.0464,2.0464,0,0,0,0,0,0,0,0,2.0666,2.0662,2.0614,2.0611,2.0607,2.0566,2.0583,2.0546,2.0536,2.0562,2.0534,2.0533,2.0504,2.05,2.0491,2.0471,2.0469,2.0464,2.0463,2.0462,2.0462,0,0,0,0,0,0,0,2.0669,2.0664,2.0618,2.0613,2.0609,2.0596,2.059,2.0576,2.0538,2.056,2.0556,2.0551,2.0502,2.0492,2.0489,2.0468,2.0464,2.0463,2.0462,2.0461,2.045,2.0451,0,0,0,0,0,0,2.0677,2.0666,2.062,2.0616,2.0636,2.0596,2.0589,2.058,2.0538,2.0531,2.0551,2.0549,2.0496,2.0491,2.0486,2.049,2.0462,2.0461,2.046,2.045,2.0451,2.0451,0,0,0,0,0,0,2.0678,2.0673,2.0622,2.064,2.0633,2.0596,2.0586,2.0579,2.057,2.0532,2.0524,2.0549,2.0495,2.0489,2.0478,2.0487,2.046,2.0458,2.0449,2.045,2.0451,2.0497,0,0,0,0,0,0,2.068,2.0674,2.0676,2.0641,2.0632,2.0616,2.0587,2.0579,2.0568,2.0564,2.0527,2.0521,2.0494,2.0481,2.0477,2.0484,2.0457,2.0448,2.0449,2.0451,2.0494,2.0499,2.0504,0,0,0,0,0,2.0683,2.069,2.0677,2.0671,2.0634,2.0616,2.0611,2.0582,2.0569,2.057,2.0545,2.0522,2.0487,2.048,2.0475,2.0482,2.0447,2.0449,2.045,2.0492,2.0498,2.0503,0,0,0,0,0,0,2.0725,2.0685,2.0669,2.0665,2.0645,2.0609,2.0609,2.0589,2.0571,2.0568,2.053,2.0523,2.0516,2.0498,2.0491,2.0485,2.0464,2.0465,2.0497,2.0503,2.0507,2.0512,2.0456,0,0,0,0,0,2.0735,2.0725,2.0689,2.0689,2.068,2.0647,2.0638,2.0617,2.0594,2.0585,2.0559,2.0536,2.052,2.051,2.0493,2.0491,2.0483,2.0493,2.0498,2.0502,2.0503,2.0502,2.0507,2.0457,2.0457,2.0457,0,0,2.0753,2.0729,2.0725,2.0697,2.0679,2.0669,2.064,2.063,2.0622,2.0582,2.0572,2.0552,2.0524,2.0519,2.0514,2.0503,2.0515,2.0504,2.0508,2.0507,2.0504,2.0509,2.0513,2.0458,2.0458,2.0458,0,0,2.0781,2.0763,2.0761,2.0744,2.0718,2.0696,2.0696,2.0663,2.0649,2.0638,2.0608,2.0598,2.0571,2.0553,2.054,2.0563,2.0541,2.0558,2.0583,2.0582,2.0586,2.0589,2.0599,2.0602,2.056,2.056,2.056,0,2.0807,2.0792,2.0763,2.0756,2.0744,2.071,2.0708,2.0692,2.0661,2.0654,2.0642,2.0608,2.0587,2.0577,2.0583,2.0573,2.0572,2.0563,2.0588,2.0591,2.0594,2.0602,2.0606,2.0562,2.0562,2.0562,2.0561,0,2.0826,2.0816,2.0818,2.0791,2.078,2.0775,2.0744,2.0736,2.0717,2.0696,2.0685,2.0659,2.0637,2.0632,2.0612,2.062,2.0614,2.0595,2.0574,2.0602,2.0609,2.0612,2.0566,2.0565,2.0564,2.0563,0,0,2.0879,2.0837,2.0839,2.0827,2.0796,2.0787,2.0781,2.0761,2.0755,2.0735,2.0729,2.0708,2.0691,2.0677,2.0654,2.0653,2.0675,2.0635,2.0634,2.0644,2.0683,2.0698,2.0702,2.066,2.0661,2.0661,2.0686,0,2.0903,2.0893,2.0866,2.0863,2.0854,2.0822,2.0816,2.0796,2.0777,2.0766,2.0743,2.073,2.0708,2.07,2.0697,2.0673,2.0683,2.0671,2.0654,2.0654,2.0663,2.0706,2.0721,2.0746,2.0688,2.0689,2.0689,0,2.093,2.0915,2.0911,2.0882,2.0877,2.0873,2.0854,2.0843,2.082,2.0806,2.0791,2.0767,2.0758,2.0738,2.0726,2.0719,2.071,2.0697,2.0697,2.0695,2.0674,2.0706,2.0753,2.0757,2.0693,2.0693,2.0693,0,2.0971,2.0949,2.0944,2.0935,2.09,2.0898,2.0884,2.086,2.085,2.0832,2.0826,2.0806,2.0796,2.0782,2.0753,2.0741,2.0744,2.0721,2.0732,2.0733,2.0734,2.0735,2.0782,2.0728,2.0728,2.0728,2.0728,0,2.1001,2.1001,2.0962,2.096,2.0958,2.0927,2.0926,2.0908,2.0888,2.088,2.085,2.0844,2.0806,2.0795,2.0772,2.0766,2.0761,2.075,2.0744,2.0753,2.0755,2.0747,2.0745,2.0729,2.0728,2.0728,2.0728,0,2.1047,2.1021,2.1014,2.0983,2.0975,2.0976,2.0948,2.0944,2.0923,2.0915,2.0911,2.0878,2.0864,2.0834,2.081,2.0795,2.0795,2.0784,2.0804,2.08,2.0813,2.0813,2.0857,2.0862,2.0805,2.0805,2.0806,0,2.1068,2.1068,2.1037,2.1031,2.1018,2.1008,2.0999,2.0969,2.096,2.0934,2.0933,2.0917,2.0903,2.0881,2.0855,2.0837,2.0826,2.0843,2.0823,2.0833,2.0827,2.0828,2.0828,2.0847,2.0848,2.0849,2.0849,0,2.111,2.1098,2.1086,2.107,2.1061,2.1046,2.103,2.1026,2.0992,2.0984,2.097,2.0959,2.0937,2.0921,2.09,2.0883,2.0861,2.0856,2.0858,2.0867,2.0879,2.0874,2.0817,2.0855,2.0854,2.0854,2.0854,2.0853,2.1145,2.1143,2.1122,2.111,2.1096,2.1082,2.1077,2.1057,2.1045,2.1026,2.1008,2.0996,2.0973,2.0943,2.0928,2.0918,2.0907,2.0909,2.091,2.0911,2.0916,2.0881,2.0914,2.0914,2.0913,2.0913,2.0913,0,2.1186,2.1171,2.1161,2.114,2.1131,2.1112,2.1094,2.1087,2.1078,2.1059,2.1047,2.1031,2.1016,2.0989,2.0972,2.0969,2.0958,2.0965,2.0966,2.0963,2.0926,2.0927,2.0975,2.0975,2.0975,2.0975,2.0975,2.0975,2.1206,2.1203,2.1188,2.1178,2.1162,2.1152,2.1143,2.113,2.1116,2.1101,2.1089,2.1072,2.105,2.1031,2.1016,2.1009,2.1004,2.1015,2.1004,2.0971,2.0965,2.0959,2.096,2.1014,2.1014,2.1042,2.1042,2.1042]}]]